Weather History for Homestead AFB, FL

Change the Weather History Date:

Sunday, December 9, 2012

  Actual Average Record
Temperature  
Mean Temperature 76 °F -  
Max Temperature 82 °F 78 °F 87 °F (1942)
Min Temperature 69 °F 59 °F 35 °F (1934)
Cooling Degree Days 10    
Growing Degree Days 26 (Base 50)    
Moisture  
Dew Point 70 °F    
Average Humidity 91    
Maximum Humidity 100    
Minimum Humidity 72    
Precipitation  
Precipitation 0.00 in - - ()
Sea Level Pressure  
Sea Level Pressure 30.04 in    
Wind  
Wind Speed 2 mph (ESE)    
Max Wind Speed 9 mph    
Max Gust Speed -    
Visibility 6 miles    
Events      
Averages and records for this station are not official NWS values.
T = Trace of Precipitation, MM = Missing Value Source: NWS Daily Summary

Daily Weather History Graph

Daily Weather History Graph

Search for Another Location

Airport:

Trip Planner

Search our weather history database for the weather conditions in past years. The results will help you decide how hot, cold, wet, or windy it might be!

Date:

Astronomy

Dec. 09, 2012 Rise Set
Actual Time 6:56 AM EST 5:31 PM EST
Civil Twilight 6:31 AM EST 5:56 PM EST
Nautical Twilight 6:02 AM EST 6:25 PM EST
Astronomical Twilight 5:34 AM EST 6:53 PM EST
Moon 2:45 AM EST (12/9) 2:22 PM EST (12/9)
Length of Visible Light 11h 25m
Length of Day
10h 35m
Waning Crescent, 19% of the Moon is Illuminated
Dec 9
Waning Crescent
Dec 13
New
Dec 20
First Quarter
Dec 28
Full
Jan 4
Last Quarter

Hourly Weather History & Observations

Time (EST) Temp. Heat Index Dew Point Humidity Pressure Visibility Wind Dir Wind Speed Gust Speed Precip Events Conditions
12:55 AM 73.4 °F - 71.2 °F 93% 30.03 in 10.0 mi ESE 3.5 mph - N/A   Partly Cloudy
1:55 AM 73.2 °F - 71.1 °F 93% 30.02 in 10.0 mi Calm Calm - N/A   Clear
2:55 AM 71.8 °F - 70.3 °F 95% 30.01 in 10.0 mi Calm Calm - N/A   Clear
3:14 AM 71.6 °F - 69.8 °F 94% 30.01 in 2.5 mi Calm Calm - N/A   Clear
3:16 AM 71.6 °F - 69.8 °F 94% 30.01 in 2.5 mi Calm Calm - N/A   Clear
3:23 AM 71.6 °F - 69.8 °F 94% 30.01 in 1.8 mi Calm Calm - N/A   Clear
3:26 AM 71.6 °F - 69.8 °F 94% 30.01 in 1.2 mi Calm Calm - N/A   Clear
3:28 AM 69.8 °F - 68.0 °F 94% 30.01 in 1.0 mi Calm Calm - N/A   Clear
3:31 AM 69.8 °F - 68.0 °F 94% 30.01 in 1.0 mi Calm Calm - N/A   Clear
3:33 AM 69.8 °F - 68.0 °F 94% 30.01 in 1.2 mi Calm Calm - N/A   Clear
3:35 AM 69.8 °F - 68.0 °F 94% 30.02 in 1.2 mi Calm Calm - N/A   Clear
3:36 AM 69.8 °F - 68.0 °F 94% 30.02 in 1.5 mi Calm Calm - N/A   Clear
3:39 AM 69.8 °F - 68.0 °F 94% 30.02 in 2.0 mi Calm Calm - N/A   Clear
3:42 AM 69.8 °F - 68.0 °F 94% 30.02 in 3.0 mi Calm Calm - N/A   Partly Cloudy
3:43 AM 69.8 °F - 68.0 °F 94% 30.02 in 3.0 mi Calm Calm - N/A   Partly Cloudy
3:46 AM 69.8 °F - 68.0 °F 94% 30.02 in 4.0 mi NNW 3.5 mph - N/A   Partly Cloudy
3:55 AM 70.5 °F - 68.9 °F 95% 30.02 in 7.0 mi NNW 3.5 mph - N/A   Partly Cloudy
4:55 AM 71.2 °F - 69.8 °F 95% 30.03 in 10.0 mi NNW 4.6 mph - N/A   Scattered Clouds
5:55 AM 70.5 °F - 69.1 °F 95% 30.04 in 9.0 mi Calm Calm - N/A   Clear
6:11 AM 69.8 °F - 68.0 °F 94% 30.05 in 2.5 mi Calm Calm - N/A   Clear
6:14 AM 69.8 °F - 68.0 °F 94% 30.05 in 1.8 mi Calm Calm - N/A   Clear
6:16 AM 69.8 °F - 68.0 °F 94% 30.05 in 1.5 mi Calm Calm - N/A   Clear
6:17 AM 69.8 °F - 68.0 °F 94% 30.05 in 1.2 mi Calm Calm - N/A   Clear
6:21 AM 69.8 °F - 68.0 °F 94% 30.05 in 1.2 mi Calm Calm - N/A   Clear
6:22 AM 69.8 °F - 69.8 °F 100% 30.05 in 1.5 mi Calm Calm - N/A   Clear
6:26 AM 69.8 °F - 69.8 °F 100% 30.05 in 2.0 mi NNE 3.5 mph - N/A   Clear
6:30 AM 69.8 °F - 68.0 °F 94% 30.05 in 1.8 mi NNE 3.5 mph - N/A   Partly Cloudy
6:31 AM 69.8 °F - 68.0 °F 94% 30.05 in 1.8 mi Calm Calm - N/A   Partly Cloudy
6:33 AM 69.8 °F - 68.0 °F 94% 30.05 in 1.8 mi Calm Calm - N/A   Partly Cloudy
6:39 AM 69.8 °F - 68.0 °F 94% 30.05 in 2.0 mi Calm Calm - N/A   Partly Cloudy
6:42 AM 69.8 °F - 68.0 °F 94% 30.05 in 3.0 mi Calm Calm - N/A   Partly Cloudy
6:43 AM 69.8 °F - 68.0 °F 94% 30.05 in 3.0 mi NE 3.5 mph - N/A   Partly Cloudy
6:55 AM 70.2 °F - 68.7 °F 95% 30.06 in 3.0 mi NE 3.5 mph - N/A   Partly Cloudy
6:59 AM 69.8 °F - 68.0 °F 94% 30.06 in 2.5 mi Calm Calm - N/A   Clear
7:07 AM 69.8 °F - 68.0 °F 94% 30.06 in 1.8 mi Calm Calm - N/A   Clear
7:18 AM 69.8 °F - 68.0 °F 94% 30.06 in 2.0 mi Calm Calm - N/A   Clear
7:20 AM 69.8 °F - 68.0 °F 94% 30.06 in 4.0 mi Calm Calm - N/A   Partly Cloudy
7:55 AM 71.2 °F - 70.2 °F 96% 30.07 in 10.0 mi Calm Calm - N/A   Clear
8:55 AM 75.2 °F - 74.1 °F 96% 30.08 in 10.0 mi NE 3.5 mph - N/A   Clear
9:55 AM 78.1 °F - 75.4 °F 91% 30.10 in 10.0 mi SSE 5.8 mph - N/A   Partly Cloudy
10:45 AM 80.6 °F 85.4 °F 73.4 °F 79% 30.10 in 10.0 mi SE 5.8 mph - N/A   Mostly Cloudy
10:47 AM 80.6 °F 85.4 °F 73.4 °F 79% 30.09 in 10.0 mi SE 8.1 mph - N/A   Scattered Clouds
10:55 AM 80.8 °F 85.8 °F 73.8 °F 79% 30.09 in 10.0 mi SE 8.1 mph - N/A   Mostly Cloudy
10:58 AM 80.6 °F 85.4 °F 73.4 °F 79% 30.09 in 10.0 mi SE 8.1 mph - N/A   Mostly Cloudy
11:03 AM 80.6 °F 85.4 °F 73.4 °F 79% 30.09 in 10.0 mi ESE 9.2 mph - N/A   Mostly Cloudy
11:55 AM 81.0 °F 86.2 °F 73.9 °F 79% 30.07 in 10.0 mi SE 6.9 mph - N/A   Clear
12:55 PM 82.8 °F 88.4 °F 72.9 °F 72% 30.04 in 10.0 mi SE 9.2 mph - N/A   Mostly Cloudy
1:55 PM 81.5 °F 87.2 °F 74.1 °F 78% 30.02 in 10.0 mi SE 8.1 mph - N/A   Partly Cloudy
2:55 PM 82.6 °F 88.8 °F 74.1 °F 75% 30.01 in 10.0 mi SE 5.8 mph - N/A   Partly Cloudy
3:55 PM 82.6 °F 88.8 °F 74.1 °F 75% 30.01 in 10.0 mi SE 8.1 mph - N/A   Partly Cloudy
4:55 PM 80.8 °F 85.8 °F 73.6 °F 79% 30.02 in 10.0 mi SE 6.9 mph - N/A   Clear
5:55 PM 77.0 °F - 73.4 °F 89% 30.03 in 10.0 mi ESE 3.5 mph - N/A   Clear
6:55 PM 75.4 °F - 73.2 °F 93% 30.04 in 10.0 mi SE 4.6 mph - N/A   Clear
7:55 PM 75.2 °F - 73.0 °F 93% 30.05 in 10.0 mi SE 4.6 mph - N/A   Clear
8:55 PM 74.1 °F - 72.3 °F 94% 30.06 in 10.0 mi Calm Calm - N/A   Clear
9:55 PM 71.8 °F - 70.0 °F 94% 30.06 in 4.0 mi SE 3.5 mph - N/A   Clear
10:31 PM 71.6 °F - 71.6 °F 100% 30.06 in 5.0 mi Calm Calm - N/A   Clear
10:34 PM 71.6 °F - 71.6 °F 100% 30.06 in 5.0 mi Calm Calm - N/A   Clear
10:55 PM 72.5 °F - 72.3 °F 99% 30.06 in 10.0 mi Calm Calm - N/A   Clear
11:55 PM 71.2 °F - 70.9 °F 99% 30.05 in 10.0 mi Calm Calm - N/A   Clear